When you browse on this site, cookies collect data to enhance your experience and personalize the content and advertising you see.
Visit our Privacy Policy to learn more. By continuing to use the site, you agree to this use of cookies and data.
  • în România
  • Lista ţărilor
  • Pe 7 zile
  • Temperatura apei
  • Meteo pe hartă
  • Widget-uri
  • user-avatar
    Intrare

    Meteo pe oră la Gaborone

    Astăzi, 21 Ianuarie, Marţi

    Timp Temperatura Precipitaţii Vânt Presiune Umiditate
    00:00 +25°C° 0 mm 4 m/s 677 mmHg 62%
    01:00 +23°C° 0 mm 4 m/s 677 mmHg 65%
    02:00 +22°C° 0 mm 4 m/s 677 mmHg 68%
    03:00 +21°C° 0 mm 3 m/s 677 mmHg 72%
    04:00 +21°C° 0 mm 3 m/s 677 mmHg 75%
    05:00 +20°C° 0 mm 3 m/s 676 mmHg 79%
    06:00 +21°C° 0 mm 3 m/s 677 mmHg 76%
    07:00 +21°C° 0 mm 3 m/s 677 mmHg 73%
    08:00 +22°C° 0 mm 4 m/s 678 mmHg 71%
    09:00 +25°C° 0 mm 3 m/s 678 mmHg 64%
    10:00 +27°C° 0 mm 3 m/s 679 mmHg 57%
    11:00 +29°C° 0 mm 3 m/s 679 mmHg 50%
    12:00 +30°C° 0 mm 2 m/s 678 mmHg 45%
    13:00 +32°C° 0 mm 2 m/s 678 mmHg 39%
    14:00 +34°C° 0 mm 1 m/s 677 mmHg 34%
    15:00 +35°C° 0 mm 2 m/s 677 mmHg 33%
    16:00 +35°C° 0 mm 2 m/s 677 mmHg 33%
    17:00 +35°C° 0 mm 2 m/s 676 mmHg 32%
    18:00 +31°C° 0.1 mm 2 m/s 676 mmHg 41%
    19:00 +29°C° 0.1 mm 3 m/s 675 mmHg 50%
    20:00 +27°C° 0.1 mm 4 m/s 675 mmHg 60%
    21:00 +27°C° 0 mm 3 m/s 675 mmHg 59%
    22:00 +27°C° 0 mm 3 m/s 675 mmHg 59%
    23:00 +26°C° 0 mm 2 m/s 676 mmHg 59%

    Mâine, 22 Ianuarie, Miercuri

    Timp Temperatura Precipitaţii Vânt Presiune Umiditate
    00:00 +26°C° 0 mm 2 m/s 675 mmHg 61%
    01:00 +25°C° 0 mm 2 m/s 675 mmHg 63%
    02:00 +24°C° 0 mm 2 m/s 675 mmHg 65%
    03:00 +24°C° 0 mm 2 m/s 675 mmHg 65%
    04:00 +24°C° 0 mm 2 m/s 675 mmHg 65%
    05:00 +24°C° 0 mm 2 m/s 675 mmHg 65%
    06:00 +25°C° 0 mm 3 m/s 675 mmHg 64%
    07:00 +25°C° 0 mm 3 m/s 676 mmHg 62%
    08:00 +25°C° 0 mm 4 m/s 676 mmHg 61%
    09:00 +27°C° 0 mm 4 m/s 676 mmHg 53%
    10:00 +30°C° 0 mm 4 m/s 677 mmHg 46%
    11:00 +33°C° 0 mm 4 m/s 677 mmHg 38%
    12:00 +35°C° 0 mm 3 m/s 676 mmHg 34%
    13:00 +36°C° 0 mm 2 m/s 676 mmHg 29%
    14:00 +37°C° 0 mm 2 m/s 675 mmHg 25%
    15:00 +37°C° 0 mm 2 m/s 675 mmHg 26%
    16:00 +36°C° 0 mm 2 m/s 674 mmHg 27%
    17:00 +35°C° 0 mm 2 m/s 674 mmHg 28%
    18:00 +34°C° 0 mm 2 m/s 674 mmHg 32%
    19:00 +31°C° 0 mm 2 m/s 673 mmHg 35%
    20:00 +30°C° 0 mm 3 m/s 673 mmHg 39%
    21:00 +29°C° 0 mm 3 m/s 674 mmHg 41%
    22:00 +29°C° 0 mm 3 m/s 674 mmHg 43%
    23:00 +28°C° 0 mm 2 m/s 674 mmHg 45%

    Poimâine, 23 Ianuarie, Joi

    Timp Temperatura Precipitaţii Vânt Presiune Umiditate
    00:00 +28°C° 0 mm 2 m/s 674 mmHg 48%
    01:00 +27°C° 0 mm 3 m/s 673 mmHg 50%
    02:00 +26°C° 0 mm 3 m/s 673 mmHg 53%
    03:00 +26°C° 0 mm 2 m/s 673 mmHg 55%
    04:00 +25°C° 0 mm 2 m/s 673 mmHg 57%
    05:00 +25°C° 0 mm 1 m/s 673 mmHg 59%
    06:00 +26°C° 0 mm 2 m/s 674 mmHg 57%
    07:00 +27°C° 0 mm 3 m/s 674 mmHg 54%
    08:00 +28°C° 0 mm 3 m/s 675 mmHg 51%
    09:00 +30°C° 0 mm 3 m/s 675 mmHg 45%
    10:00 +33°C° 0 mm 3 m/s 676 mmHg 38%
    11:00 +36°C° 0 mm 4 m/s 676 mmHg 31%
    12:00 +36°C° 0 mm 3 m/s 675 mmHg 29%
    13:00 +37°C° 0 mm 3 m/s 675 mmHg 26%
    14:00 +37°C° 0 mm 3 m/s 674 mmHg 24%
    15:00 +36°C° 0.1 mm 3 m/s 674 mmHg 29%
    16:00 +34°C° 0.1 mm 3 m/s 674 mmHg 33%
    17:00 +33°C° 0.1 mm 4 m/s 674 mmHg 38%
    18:00 +30°C° 0.3 mm 3 m/s 675 mmHg 45%
    19:00 +28°C° 0.3 mm 3 m/s 675 mmHg 53%
    20:00 +26°C° 0.3 mm 3 m/s 675 mmHg 60%
    21:00 +25°C° 0.8 mm 3 m/s 675 mmHg 66%
    22:00 +24°C° 0.8 mm 3 m/s 676 mmHg 72%
    23:00 +22°C° 0.8 mm 4 m/s 676 mmHg 78%

    24 Ianuarie, Vineri

    Timp Temperatura Precipitaţii Vânt Presiune Umiditate
    00:00 +22°C° 2.2 mm 4 m/s 676 mmHg 81%
    01:00 +21°C° 2.2 mm 4 m/s 676 mmHg 84%
    02:00 +21°C° 2.2 mm 4 m/s 675 mmHg 87%
    03:00 +21°C° 1.5 mm 4 m/s 676 mmHg 88%
    04:00 +20°C° 1.5 mm 3 m/s 676 mmHg 90%
    05:00 +20°C° 1.5 mm 2 m/s 676 mmHg 91%
    06:00 +20°C° 0.9 mm 3 m/s 677 mmHg 90%
    07:00 +20°C° 0.9 mm 5 m/s 677 mmHg 89%
    08:00 +20°C° 0.9 mm 6 m/s 677 mmHg 87%
    09:00 +21°C° 0.4 mm 5 m/s 677 mmHg 86%
    10:00 +22°C° 0.4 mm 5 m/s 678 mmHg 85%
    11:00 +22°C° 0.4 mm 4 m/s 678 mmHg 83%
    12:00 +23°C° 0.3 mm 4 m/s 677 mmHg 80%
    13:00 +23°C° 0.3 mm 4 m/s 677 mmHg 76%
    14:00 +25°C° 0.3 mm 4 m/s 677 mmHg 72%
    15:00 +26°C° 0.2 mm 5 m/s 676 mmHg 69%
    16:00 +27°C° 0.2 mm 5 m/s 676 mmHg 66%
    17:00 +27°C° 0.2 mm 5 m/s 675 mmHg 63%
    18:00 +26°C° 0.7 mm 4 m/s 675 mmHg 69%
    19:00 +25°C° 0.7 mm 4 m/s 676 mmHg 76%
    20:00 +24°C° 0.7 mm 3 m/s 676 mmHg 82%
    21:00 +22°C° 1.4 mm 3 m/s 676 mmHg 85%
    22:00 +22°C° 1.4 mm 3 m/s 677 mmHg 87%
    23:00 +21°C° 1.4 mm 3 m/s 677 mmHg 90%

    25 Ianuarie, Sâmbătă

    Timp Temperatura Precipitaţii Vânt Presiune Umiditate
    00:00 +21°C° 10.3 mm 3 m/s 677 mmHg 92%
    01:00 +20°C° 10.3 mm 3 m/s 676 mmHg 93%
    02:00 +20°C° 10.3 mm 3 m/s 676 mmHg 95%
    03:00 +20°C° 5.4 mm 3 m/s 676 mmHg 95%
    04:00 +20°C° 5.4 mm 3 m/s 676 mmHg 95%
    05:00 +19°C° 5.4 mm 3 m/s 676 mmHg 94%
    06:00 +19°C° 8.5 mm 4 m/s 676 mmHg 94%
    07:00 +19°C° 8.5 mm 4 m/s 677 mmHg 93%
    08:00 +19°C° 8.5 mm 5 m/s 677 mmHg 93%
    09:00 +21°C° 0.1 mm 5 m/s 677 mmHg 88%
    10:00 +22°C° 0.1 mm 5 m/s 677 mmHg 83%
    11:00 +23°C° 0.1 mm 5 m/s 678 mmHg 79%
    12:00 +23°C° 0 mm 5 m/s 677 mmHg 76%
    13:00 +25°C° 0 mm 4 m/s 676 mmHg 74%
    14:00 +25°C° 0 mm 4 m/s 676 mmHg 72%
    15:00 +26°C° 0.2 mm 3 m/s 676 mmHg 69%
    16:00 +27°C° 0.2 mm 3 m/s 675 mmHg 65%
    17:00 +28°C° 0.2 mm 2 m/s 675 mmHg 62%
    18:00 +27°C° 0.7 mm 2 m/s 675 mmHg 67%
    19:00 +26°C° 0.7 mm 1 m/s 675 mmHg 72%
    20:00 +24°C° 0.7 mm 1 m/s 675 mmHg 77%
    21:00 +24°C° 0.2 mm 1 m/s 675 mmHg 79%
    22:00 +24°C° 0.2 mm 1 m/s 676 mmHg 81%
    23:00 +24°C° 0.2 mm 2 m/s 676 mmHg 83%

    26 Ianuarie, Duminică

    Timp Temperatura Precipitaţii Vânt Presiune Umiditate
    00:00 +23°C° 0.1 mm 2 m/s 676 mmHg 84%
    01:00 +23°C° 0.1 mm 2 m/s 675 mmHg 86%
    02:00 +23°C° 0.1 mm 1 m/s 675 mmHg 87%
    03:00 +23°C° 0 mm 2 m/s 675 mmHg 88%
    04:00 +21°C° 0 mm 2 m/s 675 mmHg 90%
    05:00 +21°C° 0 mm 2 m/s 675 mmHg 91%
    06:00 +23°C° 0 mm 2 m/s 676 mmHg 85%
    07:00 +24°C° 0 mm 3 m/s 676 mmHg 78%
    08:00 +25°C° 0 mm 4 m/s 677 mmHg 72%
    09:00 +27°C° 0 mm 4 m/s 677 mmHg 65%
    10:00 +29°C° 0 mm 4 m/s 677 mmHg 57%
    11:00 +32°C° 0 mm 4 m/s 677 mmHg 50%
    12:00 +33°C° 0 mm 3 m/s 677 mmHg 46%
    13:00 +34°C° 0 mm 3 m/s 676 mmHg 42%
    14:00 +35°C° 0 mm 3 m/s 676 mmHg 38%
    15:00 +35°C° 0 mm 3 m/s 676 mmHg 39%
    16:00 +34°C° 0 mm 3 m/s 675 mmHg 41%
    17:00 +33°C° 0 mm 3 m/s 675 mmHg 43%
    18:00 +31°C° 0.2 mm 3 m/s 675 mmHg 50%
    19:00 +29°C° 0.2 mm 2 m/s 675 mmHg 56%
    20:00 +27°C° 0.2 mm 2 m/s 675 mmHg 62%
    21:00 +27°C° 0.1 mm 1 m/s 675 mmHg 65%
    22:00 +26°C° 0.1 mm 1 m/s 676 mmHg 68%
    23:00 +26°C° 0.1 mm 1 m/s 676 mmHg 72%
    Arată mai mult